DMSP 5D-2 F13 DEB, 40414

Orbit data source: Space-Track

DMSP 5D-2 F13 DEB, 40414 is space debris in SSO originally from a launch on Fri, 24 Mar 1995 UTC launched from the Air Force Western Test Range (AFWTR). Debris objects in space refer to the collection of defunct objects orbiting the Earth. Examples of debris include non-operational satellites, rocket bodies, and fragments generated from explosions, collisions, or faulty payload assembly.

Loading next visibility...
Identifier
40414, 1995-015AB
Orbit
SSO
Country
Flag of USUS
Related business
Manufacturer
Unknown
Mission
Spacecraft
Bus & Motor
Unknown
Mass
Unknown
Launch date (UTC)
1995-03-24 (31 years ago)
Launch vehicle
Unknown
Launch site
Air Force Western Test Range (AFWTR)
Object type
Payload
Rocket body
Debris
Shape & HBR
Unknown shape, 0.1 m
Radar Cross Section
Small (<0.1 m²)

Expand to show TLE details & history
Last TLE update: 1 day ago

TLE from 1 day ago
0 DMSP 5D-2 F13 DEB
1 40414U 95015AB  25347.50741361  .00003916  00000-0  14854-2 0  9994
2 40414  98.6414  11.5345 0012070 111.0192 249.2283 14.31616705560703
Epoch: 2025-12-13T12:10Z
TLE epoch observation values (Epoch: 2025-12-13T12:10:40.535Z)
Latitude
-0.00008°
Longitude
106.43193°
Altitude
792.341 km
Speed
7.456 km/s
True Right ascension
00h 46m 08s
True Declination
0° 00' 00"
Sunlit
Object was in daylight at epoch
Visualization orbit readout
Latitude
Unknown
Longitude
Unknown
Altitude
Unknown
Speed
Unknown
Apparent Right ascension
Unknown
Apparent Declination
Unknown
Sunlit
N/A
Visualization observer readout
Local Sidereal Time
15:55:26
Azimuth
Unknown
Elevation
Unknown
Doppler factor
Unknown
Orbital elements
Apogee altitude
792.116 km
Perigee altitude
774.828 km
Semi-major axis
7,161.609 km
Eccentricity
0.00121
Inclination
98.6414°
RAAN
11.5345°
Arg. of periapsis
111.0192°
True anomaly
249.09905°
Mean anomaly
249.2283°
Eccentric anomaly
249.16367°
Mean motion
3.58119 °/min
Orbital period
100.53 mins
BSTAR
0.0014854
Loading maneuver chart data...
Computing Atmospheric mass density...

Documentation

Showing up to 5 results
|